When you browse on this site, cookies collect data to enhance your experience and personalize the content and advertising you see.
Visit our Privacy Policy to learn more. By continuing to use the site, you agree to this use of cookies and data.
  • In Portugal
  • List of Countries
  • For 7 days
  • Water Temperature
  • Satellite Maps
  • Weather Map
  • Weather Widgets
  • user-avatar
    Login

    Hourly Weather Shuvary

    Today, 25 June, Tuesday

    Time Temperature Precipitation Wind Pressure Humidity
    00:00 +16°C° 0 mm 3 mps 748 mmHg 83%
    01:00 +14°C° 0 mm 3 mps 748 mmHg 82%
    02:00 +13°C° 0 mm 3 mps 749 mmHg 81%
    03:00 +12°C° 0 mm 3 mps 749 mmHg 81%
    04:00 +13°C° 0 mm 3 mps 749 mmHg 80%
    05:00 +14°C° 0 mm 4 mps 750 mmHg 78%
    06:00 +14°C° 0 mm 4 mps 750 mmHg 76%
    07:00 +17°C° 0 mm 4 mps 750 mmHg 71%
    08:00 +18°C° 0 mm 4 mps 750 mmHg 66%
    09:00 +20°C° 0 mm 5 mps 751 mmHg 60%
    10:00 +20°C° 0 mm 4 mps 751 mmHg 58%
    11:00 +21°C° 0 mm 4 mps 751 mmHg 55%
    12:00 +22°C° 0 mm 4 mps 751 mmHg 53%
    13:00 +22°C° 0 mm 4 mps 751 mmHg 54%
    14:00 +22°C° 0 mm 4 mps 751 mmHg 54%
    15:00 +22°C° 0 mm 4 mps 751 mmHg 55%
    16:00 +21°C° 0.1 mm 4 mps 751 mmHg 59%
    17:00 +21°C° 0.1 mm 3 mps 751 mmHg 63%
    18:00 +21°C° 0.1 mm 3 mps 751 mmHg 67%
    19:00 +19°C° 0 mm 3 mps 751 mmHg 70%
    20:00 +17°C° 0 mm 2 mps 751 mmHg 74%
    21:00 +15°C° 0 mm 2 mps 751 mmHg 77%
    22:00 +14°C° 0 mm 2 mps 751 mmHg 79%
    23:00 +14°C° 0 mm 2 mps 751 mmHg 80%

    Tomorrow, 26 June, Wednesday

    Time Temperature Precipitation Wind Pressure Humidity
    00:00 +13°C° 0 mm 2 mps 751 mmHg 82%
    01:00 +12°C° 0 mm 2 mps 751 mmHg 85%
    02:00 +12°C° 0 mm 2 mps 751 mmHg 87%
    03:00 +10°C° 0 mm 2 mps 752 mmHg 89%
    04:00 +11°C° 0 mm 3 mps 752 mmHg 87%
    05:00 +11°C° 0 mm 3 mps 751 mmHg 85%
    06:00 +12°C° 0 mm 3 mps 751 mmHg 83%
    07:00 +14°C° 0 mm 3 mps 751 mmHg 76%
    08:00 +15°C° 0 mm 4 mps 751 mmHg 68%
    09:00 +18°C° 0 mm 4 mps 751 mmHg 61%
    10:00 +18°C° 0 mm 4 mps 751 mmHg 59%
    11:00 +19°C° 0 mm 4 mps 751 mmHg 56%
    12:00 +19°C° 0 mm 4 mps 751 mmHg 53%
    13:00 +20°C° 0 mm 4 mps 750 mmHg 52%
    14:00 +20°C° 0 mm 4 mps 750 mmHg 52%
    15:00 +20°C° 0 mm 3 mps 750 mmHg 51%
    16:00 +20°C° 0 mm 3 mps 749 mmHg 54%
    17:00 +20°C° 0 mm 2 mps 749 mmHg 58%
    18:00 +20°C° 0 mm 2 mps 748 mmHg 62%
    19:00 +18°C° 0 mm 2 mps 748 mmHg 65%
    20:00 +16°C° 0 mm 2 mps 748 mmHg 68%
    21:00 +15°C° 0 mm 2 mps 748 mmHg 71%
    22:00 +15°C° 0 mm 1 mps 747 mmHg 73%
    23:00 +15°C° 0 mm 1 mps 746 mmHg 75%

    Day after tomorrow, 27 June, Thursday

    Time Temperature Precipitation Wind Pressure Humidity
    00:00 +15°C° 0 mm 1 mps 746 mmHg 77%
    01:00 +14°C° 0.9 mm 1 mps 745 mmHg 83%
    02:00 +14°C° 0.9 mm 2 mps 745 mmHg 90%
    03:00 +13°C° 0.9 mm 2 mps 745 mmHg 96%
    04:00 +13°C° 1.8 mm 2 mps 744 mmHg 97%
    05:00 +14°C° 1.8 mm 2 mps 743 mmHg 97%
    06:00 +14°C° 1.8 mm 2 mps 743 mmHg 98%
    07:00 +14°C° 0.5 mm 1 mps 743 mmHg 97%
    08:00 +14°C° 0.5 mm 1 mps 742 mmHg 96%
    09:00 +15°C° 0.5 mm 1 mps 742 mmHg 95%
    10:00 +15°C° 0.1 mm 1 mps 741 mmHg 94%
    11:00 +15°C° 0.1 mm 2 mps 741 mmHg 94%
    12:00 +15°C° 0.1 mm 2 mps 741 mmHg 93%
    13:00 +15°C° 0.3 mm 2 mps 740 mmHg 94%
    14:00 +14°C° 0.3 mm 3 mps 740 mmHg 94%
    15:00 +14°C° 0.3 mm 3 mps 739 mmHg 95%
    16:00 +14°C° 1.5 mm 4 mps 739 mmHg 95%
    17:00 +14°C° 1.5 mm 4 mps 738 mmHg 96%
    18:00 +14°C° 1.5 mm 5 mps 737 mmHg 97%
    19:00 +14°C° 1.6 mm 6 mps 737 mmHg 97%
    20:00 +14°C° 1.6 mm 6 mps 736 mmHg 97%
    21:00 +15°C° 1.6 mm 7 mps 735 mmHg 96%
    22:00 +15°C° 2.3 mm 7 mps 735 mmHg 96%
    23:00 +16°C° 2.3 mm 7 mps 734 mmHg 96%

    28 June, Friday

    Time Temperature Precipitation Wind Pressure Humidity
    00:00 +16°C° 2.3 mm 7 mps 733 mmHg 96%
    01:00 +16°C° 1.4 mm 7 mps 732 mmHg 96%
    02:00 +16°C° 1.4 mm 7 mps 732 mmHg 96%
    03:00 +16°C° 1.4 mm 7 mps 731 mmHg 96%
    04:00 +16°C° 0.5 mm 7 mps 731 mmHg 96%
    05:00 +16°C° 0.5 mm 7 mps 730 mmHg 96%
    06:00 +16°C° 0.5 mm 7 mps 730 mmHg 96%
    07:00 +16°C° 0.4 mm 7 mps 730 mmHg 95%
    08:00 +17°C° 0.4 mm 6 mps 730 mmHg 94%
    09:00 +17°C° 0.4 mm 6 mps 730 mmHg 93%
    10:00 +19°C° 1 mm 6 mps 730 mmHg 91%
    11:00 +19°C° 1 mm 6 mps 730 mmHg 89%
    12:00 +20°C° 1 mm 6 mps 730 mmHg 87%
    13:00 +20°C° 0.4 mm 6 mps 730 mmHg 83%
    14:00 +20°C° 0.4 mm 6 mps 730 mmHg 79%
    15:00 +20°C° 0.4 mm 5 mps 730 mmHg 75%
    16:00 +20°C° 0.2 mm 5 mps 730 mmHg 76%
    17:00 +19°C° 0.2 mm 5 mps 730 mmHg 78%
    18:00 +19°C° 0.2 mm 4 mps 730 mmHg 80%
    19:00 +17°C° 0.1 mm 4 mps 730 mmHg 83%
    20:00 +15°C° 0.1 mm 4 mps 730 mmHg 87%
    21:00 +13°C° 0.1 mm 4 mps 730 mmHg 90%
    22:00 +13°C° 0 mm 4 mps 730 mmHg 91%
    23:00 +12°C° 0 mm 4 mps 730 mmHg 92%

    29 June, Saturday

    Time Temperature Precipitation Wind Pressure Humidity
    00:00 +12°C° 0 mm 4 mps 730 mmHg 93%
    01:00 +11°C° 0 mm 4 mps 730 mmHg 94%
    02:00 +11°C° 0 mm 4 mps 730 mmHg 95%
    03:00 +10°C° 0 mm 5 mps 730 mmHg 96%
    04:00 +10°C° 0 mm 5 mps 731 mmHg 93%
    05:00 +10°C° 0 mm 5 mps 731 mmHg 91%
    06:00 +12°C° 0 mm 5 mps 731 mmHg 89%
    07:00 +13°C° 0.1 mm 5 mps 732 mmHg 86%
    08:00 +13°C° 0.1 mm 5 mps 732 mmHg 83%
    09:00 +14°C° 0.1 mm 5 mps 732 mmHg 81%
    10:00 +15°C° 0.3 mm 5 mps 733 mmHg 79%
    11:00 +16°C° 0.3 mm 6 mps 733 mmHg 76%
    12:00 +16°C° 0.3 mm 6 mps 734 mmHg 74%
    13:00 +17°C° 0.3 mm 5 mps 734 mmHg 72%
    14:00 +17°C° 0.3 mm 5 mps 734 mmHg 71%
    15:00 +17°C° 0.3 mm 5 mps 734 mmHg 70%
    16:00 +18°C° 0.2 mm 4 mps 734 mmHg 71%
    17:00 +18°C° 0.2 mm 4 mps 735 mmHg 73%
    18:00 +17°C° 0.2 mm 3 mps 735 mmHg 75%
    19:00 +14°C° 0.1 mm 3 mps 735 mmHg 80%
    20:00 +13°C° 0.1 mm 3 mps 736 mmHg 85%
    21:00 +11°C° 0.1 mm 3 mps 736 mmHg 89%
    22:00 +10°C° 0 mm 3 mps 736 mmHg 91%
    23:00 +9°C° 0 mm 2 mps 736 mmHg 93%

    30 June, Sunday

    Time Temperature Precipitation Wind Pressure Humidity
    00:00 +8°C° 0 mm 2 mps 736 mmHg 94%
    01:00 +8°C° 0 mm 2 mps 736 mmHg 95%
    02:00 +7°C° 0 mm 2 mps 737 mmHg 95%
    03:00 +7°C° 0 mm 2 mps 737 mmHg 96%
    04:00 +7°C° 0 mm 2 mps 737 mmHg 94%
    05:00 +8°C° 0 mm 2 mps 737 mmHg 92%
    06:00 +9°C° 0 mm 3 mps 738 mmHg 90%
    07:00 +10°C° 0 mm 3 mps 738 mmHg 84%
    08:00 +11°C° 0 mm 4 mps 738 mmHg 78%
    09:00 +13°C° 0 mm 4 mps 738 mmHg 72%
    10:00 +13°C° 0 mm 4 mps 738 mmHg 69%
    11:00 +14°C° 0 mm 4 mps 739 mmHg 67%
    12:00 +15°C° 0 mm 4 mps 739 mmHg 64%
    13:00 +17°C° 0 mm 4 mps 739 mmHg 64%
    14:00 +17°C° 0 mm 4 mps 739 mmHg 63%
    15:00 +17°C° 0 mm 3 mps 739 mmHg 63%
    16:00 +16°C° 0.1 mm 3 mps 739 mmHg 69%
    17:00 +14°C° 0.1 mm 3 mps 740 mmHg 75%
    18:00 +14°C° 0.1 mm 3 mps 740 mmHg 81%
    19:00 +13°C° 0 mm 2 mps 740 mmHg 85%
    20:00 +12°C° 0 mm 2 mps 740 mmHg 89%
    21:00 +10°C° 0 mm 1 mps 741 mmHg 93%
    22:00 +10°C° 0 mm 1 mps 741 mmHg 93%
    23:00 +9°C° 0 mm 1 mps 741 mmHg 94%
    Show more